Orbital Elements at Epoch 2459200.5 (2020-Dec-17.0) TDB
Reference: JPL 20 (heliocentric ecliptic J2000)
Element | Value | Uncertainty (1-sigma) | Units |
e | .1083874121183604 | 3.4363e-08 | |
a | 2.602627409050735 | 1.7868e-08 | au |
q | 2.320535359475413 | 9.468e-08 | au |
i | 6.519894290234387 | 7.4656e-06 | deg |
node | 352.199236196778 | 2.8889e-05 | deg |
peri | 100.1140939829405 | 4.8119e-05 | deg |
M | 283.8735578821369 | 3.9424e-05 | deg |
tp | 2459524.801873577060 (2021-Nov-06.30187358) | 0.00016955 | TDB |
period | 1533.615275320299 4.20 | 1.5793e-05 4.324e-08 | d yr |
n | .2347394459309967 | 2.4173e-09 | deg/d |
Q | 2.884719458626058 | 1.9804e-08 | au |
|
| | Orbit Determination Parameters
Additional Information
|